Location: Chrome
(40.5765°N, 74.2163°W)
Time: 11:24:18
(UTC+00:00)

Cosmos 1812 - Pass Details

Date: 06 December 2019
Orbit: 516 x 523 km, 82.5° (Epoch: 26 January)

Event Time Altitude Azimuth Distance (km) Brightness Sun altitude
Rises 23:12:25 0° 207° (SSW) 2,636 6.9 -18.9°
Reaches altitude 10° 23:14:41 10° 216° (SW) 1,754 6.1 -19.3°
Maximum altitude 23:18:12 34° 282° (WNW) 882 4.4 -20.0°
Drops below altitude 10° 23:21:46 10° 349° (N) 1,769 5.4 -20.6°
Enters shadow 23:23:11 - 356° (N) 2,311 5.9 -20.9°
